RH
57 55 54 58 55 47 44 44 42 41 42 43 44 48 48 47 46 44 42 41 41 41 42 40 36 36 38 38 37 37 38 39 41 45 46 44 42 42 44 45 44 43 45 45 44 45 46 46 46 45 43 42 42 41 39 40 42 43 45 45 46 49 51 53 53 49 47 49 52 55 57 56 52 51 52 49 42 37 33 30 32 34 36 37 35
54 56 59 66 60 47 45 50 47 41 39 40 41 43 45 46 46 46 46 46 45 44 44 42 39 38 37 36 36 37 37 39 40 44 46 45 43 44 43 44 43 42 43 42 40 42 43 43 43 43 42 41 41 42 41 41 43 43 45 47 48 49 53 56 56 52 49 51 54 56 55 53 55 54 50 47 43 38 35 35 34 33 35 37 36
55 52 55 60 55 45 44 50 52 46 39 39 40 40 40 43 44 44 44 46 47 46 45 44 43 42 40 37 37 38 39 39 40 42 43 44 44 45 44 45 46 46 46 45 43 42 43 43 43 44 43 43 43 44 45 45 45 44 45 47 48 49 51 54 55 52 48 48 49 51 50 50 54 56 51 48 45 41 40 39 36 34 35 37 37
57 50 49 52 53 50 48 49 52 49 43 41 40 38 39 41 42 43 42 43 45 46 46 45 45 44 43 41 40 41 41 40 41 42 42 42 42 44 45 46 47 48 49 50 49 47 46 46 46 46 45 45 45 47 47 47 47 47 46 46 47 48 48 49 51 51 50 48 46 49 54 54 55 57 54 51 49 44 42 43 41 40 40 40 41
54 51 50 53 55 54 52 53 52 47 45 46 43 40 40 40 42 42 42 42 42 43 44 44 45 46 45 43 42 42 42 42 42 42 42 42 44 46 48 48 48 48 47 47 47 46 47 47 47 46 46 47 46 46 48 48 48 49 48 47 49 51 51 50 51 53 53 51 49 52 58 59 60 62 61 64 63 55 48 49 48 47 46 49 48
59 56 54 54 56 55 54 56 56 52 50 47 45 44 43 41 42 42 42 43 42 43 44 44 44 45 44 44 43 42 42 42 42 42 43 43 44 46 49 49 49 49 47 46 47 46 47 48 47 46 45 47 48 48 49 52 52 50 48 48 49 51 52 52 51 53 55 53 53 55 58 60 62 63 64 68 70 65 60 59 58 57 55 53 50
64 62 59 58 58 57 55 56 58 59 57 52 47 47 46 44 44 43 44 44 44 45 45 45 46 46 45 49 49 46 43 41 41 43 43 44 44 46 48 48 48 48 46 46 48 48 49 51 53 54 51 48 48 50 51 52 52 51 53 55 51 48 49 50 50 53 56 57 57 57 58 60 62 63 64 65 65 66 67 67 69 68 61 53 48
66 65 63 62 62 60 58 57 57 59 61 58 52 49 50 48 46 45 46 46 46 46 45 46 48 49 52 58 57 53 48 43 42 43 43 44 46 46 48 49 49 49 48 48 51 50 49 51 53 57 59 56 53 54 56 56 54 53 57 59 53 48 50 52 51 52 55 58 59 57 55 55 57 60 61 61 63 67 70 74 76 72 65 55 45
72 69 66 65 66 65 62 60 59 60 61 59 54 52 51 50 48 47 46 48 49 49 48 47 47 48 52 54 53 52 52 49 45 44 44 45 46 47 49 50 51 52 51 51 55 54 52 53 53 56 62 62 60 59 58 57 55 53 54 52 47 48 51 52 52 50 50 52 54 56 56 56 56 56 55 58 64 68 71 76 79 76 70 59 45
77 74 70 68 69 68 68 67 67 66 63 59 58 56 53 51 50 47 46 49 51 54 57 57 53 50 48 47 47 49 51 52 50 46 44 45 48 48 50 50 51 55 55 53 54 55 53 53 53 53 58 60 59 58 56 53 50 48 47 45 43 43 44 45 48 48 47 47 48 52 56 59 62 61 55 55 61 68 72 75 78 78 74 65 58
83 80 75 71 70 71 72 73 73 72 66 60 59 60 57 53 51 49 48 49 50 53 60 65 63 57 51 47 47 47 49 53 53 49 45 45 46 47 51 52 52 54 56 55 55 55 54 57 58 58 61 63 61 61 60 55 51 46 43 41 41 41 41 42 44 45 47 47 47 51 54 56 62 65 60 55 57 65 72 74 76 78 74 69 68
86 85 81 76 72 72 73 73 73 76 75 69 64 63 63 59 57 57 57 57 55 55 60 65 65 62 57 52 50 51 53 54 52 55 57 55 52 49 49 51 51 51 53 55 57 56 55 60 64 66 67 66 64 69 72 68 64 61 57 51 48 47 46 46 46 46 47 49 50 53 56 58 61 64 62 60 59 62 67 71 74 77 74 69 68
86 87 86 82 77 74 74 74 74 77 82 80 73 68 66 66 66 66 65 65 65 63 64 65 63 61 59 57 58 61 61 55 50 54 61 66 66 61 54 52 50 50 52 55 56 56 57 59 61 62 64 63 62 67 72 70 70 72 69 63 57 55 53 51 50 49 49 52 55 58 62 65 66 65 64 64 63 62 63 67 74 78 73 68 67
87 87 87 84 79 74 73 76 77 78 81 82 80 76 71 69 69 70 70 70 69 67 66 66 65 62 60 59 63 70 70 63 55 52 54 62 67 67 64 63 60 56 57 56 54 53 55 56 56 57 58 60 62 64 65 65 66 65 64 63 62 60 58 55 54 55 57 57 58 62 66 68 69 68 67 67 66 64 64 67 76 78 71 66 65
86 85 83 80 78 76 77 79 81 80 78 78 81 82 78 73 70 71 72 72 71 69 68 67 68 68 65 62 64 70 73 69 62 56 52 54 60 64 66 68 68 65 60 58 56 53 50 49 51 53 56 62 66 63 59 60 59 57 58 64 68 67 66 65 65 67 70 68 64 64 67 70 71 69 69 69 67 65 64 69 75 73 66 65 68
78 78 77 77 78 81 84 86 86 83 80 79 82 84 82 75 70 70 72 73 72 72 72 72 73 73 72 70 69 70 71 68 65 63 58 52 52 58 60 61 66 68 61 58 60 57 47 43 46 48 51 60 65 59 54 54 55 57 61 66 70 69 67 67 69 71 72 73 70 67 66 68 69 67 66 68 69 67 64 67 72 71 69 70 74
77 77 77 79 83 85 87 89 87 83 80 80 83 84 81 76 71 70 72 72 72 74 75 76 77 79 79 78 76 77 76 72 70 70 67 57 50 53 58 61 64 66 61 56 57 56 47 41 43 44 47 57 63 58 52 50 51 57 64 67 67 67 65 63 62 63 67 69 68 67 66 67 67 68 72 74 71 69 68 69 72 75 76 75 76
80 81 81 82 84 85 85 87 86 82 79 77 78 80 80 80 78 77 76 74 72 75 78 80 81 83 85 85 84 84 83 79 74 73 70 65 57 53 57 62 61 62 61 55 50 49 46 41 42 46 50 56 59 58 55 52 49 55 64 65 62 63 68 68 61 57 64 71 72 70 66 62 62 69 78 78 72 69 71 73 74 76 76 76 77
79 79 78 78 80 81 82 84 83 78 75 73 72 73 75 77 79 81 81 80 78 79 79 82 86 89 91 92 90 88 87 83 80 78 76 75 70 63 59 60 60 62 66 63 55 47 42 39 41 46 51 54 55 58 61 60 55 57 65 68 64 62 68 71 65 60 63 69 74 76 69 60 59 67 75 76 73 71 71 72 75 77 78 79 80
75 75 74 74 77 78 77 78 78 75 73 73 73 73 72 73 77 80 80 82 88 92 91 90 93 95 95 96 93 91 90 89 87 85 82 81 80 76 69 63 63 65 69 71 67 57 47 43 42 44 48 51 52 58 67 67 63 63 67 71 70 68 70 71 68 66 64 64 69 77 74 66 64 69 73 75 76 76 77 78 80 81 81 82 81
71 72 72 72 74 74 71 68 65 64 64 67 70 72 71 71 74 77 75 75 84 93 95 93 95 96 94 94 94 93 93 93 92 91 89 86 84 83 79 71 66 67 70 71 69 63 57 55 52 47 47 49 51 60 70 72 67 66 67 69 68 68 70 70 66 63 64 66 70 74 72 69 69 71 74 76 77 79 85 88 87 85 84 83 80
64 64 65 65 66 66 64 61 58 56 57 58 61 64 66 67 71 73 74 73 75 81 84 86 92 96 96 96 96 95 95 95 94 92 90 88 86 84 83 77 71 70 73 73 69 63 60 62 61 55 52 55 60 67 75 76 73 71 69 68 67 65 65 65 65 65 69 72 74 74 75 76 78 80 80 79 78 80 88 93 91 88 86 85 82
59 59 58 56 55 55 55 56 56 55 54 55 56 58 60 63 67 70 72 73 73 74 77 81 84 88 90 91 93 95 94 92 92 92 89 88 88 86 84 81 77 74 74 75 74 69 64 65 68 68 66 66 69 74 79 80 77 73 69 65 63 63 63 63 65 69 72 75 77 79 79 79 83 86 87 85 84 83 87 92 91 87 86 86 84
58 58 56 54 51 49 47 49 52 53 53 53 55 57 59 61 64 66 67 68 69 70 72 75 77 79 82 84 87 91 93 91 91 93 92 90 89 89 86 84 83 81 79 79 79 76 71 69 71 76 76 73 73 76 79 79 75 70 67 63 61 63 64 64 66 70 74 76 77 77 77 79 84 89 90 90 90 87 87 90 90 86 84 84 83
56 56 55 53 52 49 47 47 48 51 52 52 53 56 59 62 65 67 69 69 69 68 67 68 71 74 78 80 82 86 90 92 93 93 92 91 90 89 89 87 86 86 85 85 84 81 78 74 73 76 77 74 74 76 78 78 76 73 72 71 71 71 70 69 71 74 76 76 75 74 77 82 88 91 90 90 90 88 86 88 89 85 82 80 78
56 56 53 51 50 49 48 48 47 48 49 50 51 53 57 60 62 65 69 72 71 70 68 68 68 70 71 73 77 78 81 87 91 91 90 90 89 88 87 87 87 86 86 85 85 84 84 80 75 74 74 73 74 76 77 77 78 78 79 80 80 80 79 78 78 77 75 75 75 77 80 84 88 90 90 89 88 87 88 89 88 85 81 78 78
60 59 57 54 52 50 48 47 45 45 46 48 48 48 50 52 54 57 61 67 70 70 70 70 69 69 69 68 70 72 74 79 84 86 86 87 86 85 85 83 81 79 78 79 79 78 80 81 76 75 78 79 79 79 78 78 78 79 82 85 85 85 85 83 80 79 78 77 77 79 82 84 87 89 90 88 88 90 92 90 86 83 79 78 81
59 59 57 55 55 54 52 50 47 43 42 44 45 46 46 47 49 51 53 57 62 65 67 68 69 71 73 72 72 73 74 75 77 79 80 80 79 78 79 79 76 73 73 76 76 75 77 78 78 81 85 86 83 81 80 82 81 80 82 85 86 85 85 85 83 84 84 83 82 82 84 84 85 86 87 89 92 94 91 85 80 78 77 79 82
57 55 54 53 52 52 50 50 50 47 43 41 40 42 43 44 45 47 49 52 55 58 59 62 64 65 67 67 67 67 67 67 67 69 72 73 72 71 72 74 73 71 71 71 71 75 80 82 83 86 88 86 84 83 84 85 84 83 85 87 86 85 85 85 85 85 84 84 83 82 81 81 82 83 88 92 94 92 88 82 80 78 77 78 81
50 48 47 46 46 47 45 44 45 46 45 43 40 38 38 40 40 42 44 45 48 50 51 52 52 52 51 51 51 52 53 55 56 58 61 63 66 67 68 69 68 68 68 68 69 75 82 85 86 86 86 84 84 85 85 85 86 85 86 86 85 85 84 83 84 84 83 82 81 79 77 78 80 84 89 93 93 91 89 87 85 83 80 78 81
43 42 40 37 37 39 40 40 40 39 40 42 42 39 37 36 35 36 38 39 39 41 43 44 45 45 45 45 45 45 46 47 48 50 52 54 57 59 60 61 62 62 63 65 70 75 79 78 78 79 80 80 81 81 82 83 84 85 85 85 83 82 82 80 80 80 80 79 77 74 74 76 80 83 86 88 89 89 89 87 86 84 82 81 83
35 36 34 31 29 30 32 33 33 33 33 35 38 38 37 36 33 30 30 32 33 33 34 37 40 42 44 45 45 45 45 44 44 45 46 48 50 51 51 52 53 53 56 60 65 71 74 74 74 75 77 78 79 78 78 78 78 78 79 81 82 81 80 79 78 78 78 78 75 73 73 79 87 91 91 91 91 90 88 87 87 86 85 85 85
26 26 25 23 22 22 24 26 27 28 27 28 30 31 30 30 30 28 27 29 30 30 28 29 31 33 36 38 40 41 42 43 43 43 44 45 47 48 48 48 48 49 52 56 58 61 64 67 68 69 72 75 77 77 76 74 73 73 73 75 77 78 78 77 74 73 75 75 73 72 73 78 85 89 90 91 91 91 90 90 91 91 89 87 84
18 19 18 18 19 19 21 22 23 24 23 23 25 26 26 26 27 27 27 28 29 29 28 27 27 27 27 29 30 32 33 34 36 38 39 41 45 48 50 52 52 51 53 55 58 60 61 62 63 64 66 68 70 71 71 71 70 70 72 72 73 74 75 75 73 72 72 72 70 69 71 74 78 81 83 85 86 87 87 88 88 87 84 82 80
22 21 18 17 19 22 23 22 20 20 20 20 21 23 24 24 25 26 25 25 26 27 27 27 27 25 24 24 25 25 26 26 27 29 30 32 37 44 49 52 53 54 55 56 60 63 64 63 63 63 62 63 63 64 64 65 65 66 68 69 70 71 72 74 75 75 75 74 72 70 70 72 76 81 85 86 86 85 83 82 82 80 76 72 68
23 23 22 21 23 25 24 20 17 17 16 16 18 22 23 21 24 26 25 23 23 24 24 26 27 27 27 27 25 23 23 22 23 24 23 24 29 37 42 44 45 47 49 51 53 57 59 60 60 60 59 59 59 60 61 62 62 61 62 64 68 72 73 73 74 76 76 77 77 76 75 74 75 77 80 81 81 80 76 73 72 72 71 67 61
21 22 23 24 26 27 26 23 21 20 17 15 19 23 23 22 23 25 25 26 27 26 25 26 27 27 30 31 29 26 24 24 23 24 24 25 29 34 37 38 39 40 41 43 45 48 50 52 54 54 54 53 53 54 56 58 58 57 57 59 65 70 72 71 71 72 72 73 74 75 76 75 75 75 75 75 74 71 68 65 63 63 65 64 61
24 24 25 23 23 25 27 27 25 24 23 22 24 25 24 24 24 24 25 28 30 29 28 29 30 30 31 33 32 30 29 29 28 29 30 31 34 35 35 35 36 37 37 38 40 42 44 46 47 48 48 48 47 48 49 49 51 53 55 60 68 74 76 75 75 75 74 75 76 78 78 78 77 74 72 70 67 65 64 64 64 65 64 62 61
23 24 25 24 22 22 25 27 26 25 25 25 25 24 24 23 23 24 26 29 32 32 32 35 38 37 36 34 32 32 34 34 33 33 35 35 36 37 37 37 38 38 38 40 40 40 41 43 44 45 44 43 42 43 43 43 44 46 48 53 62 69 72 73 74 73 73 74 76 76 75 74 72 69 67 66 66 66 66 67 68 68 66 63 62
24 24 25 26 26 25 25 26 25 24 24 24 23 23 23 22 22 23 25 29 33 33 33 35 38 39 39 37 33 33 36 38 36 36 37 38 38 38 38 38 39 39 40 41 41 41 42 43 44 44 44 42 40 40 40 40 40 41 42 44 47 51 54 57 59 60 60 61 62 63 64 64 64 65 66 67 67 67 67 65 64 63 61 61 63
26 26 25 26 26 27 27 26 25 23 22 22 23 22 21 21 21 23 24 25 27 28 29 31 34 34 36 36 32 29 35 41 41 39 40 41 40 40 40 40 40 40 40 41 41 42 43 44 45 46 47 46 44 43 43 43 42 42 43 43 45 46 48 50 52 55 57 59 60 61 62 63 64 65 66 65 65 63 62 60 58 57 57 59 61
29 28 28 28 28 27 26 25 24 24 22 22 23 24 23 24 25 28 29 30 31 29 28 29 31 32 33 32 30 29 35 41 41 40 41 43 43 43 42 40 40 40 41 41 42 42 41 42 44 45 46 47 47 46 45 45 44 44 44 45 45 46 46 47 49 52 54 56 58 60 61 61 61 61 61 59 58 57 56 54 53 54 54 56 58
33 31 29 29 28 27 25 24 24 23 23 24 25 26 28 31 32 33 34 35 36 36 35 35 39 43 42 38 34 34 39 43 41 39 39 40 41 43 45 44 43 43 43 42 42 43 43 43 43 44 45 46 47 47 47 46 46 46 46 46 46 45 45 46 47 48 49 51 52 53 55 56 55 53 53 52 51 51 51 51 50 51 53 55 56
31 31 30 28 27 25 24 24 23 23 24 24 25 25 28 32 35 37 38 38 39 41 43 45 50 55 54 49 43 40 41 43 42 40 39 38 38 40 43 45 45 46 45 44 45 46 46 45 44 46 48 49 50 50 50 50 49 49 50 50 48 47 47 48 49 48 47 47 48 49 50 50 49 49 49 48 47 47 48 48 47 48 49 50 50
29 29 28 27 25 24 22 22 22 23 23 24 24 25 27 30 32 34 38 40 43 47 50 51 53 57 58 55 53 50 48 46 45 41 40 39 38 37 39 42 42 43 45 46 47 48 47 45 44 45 48 51 52 53 53 53 52 52 51 52 51 49 49 51 51 49 47 47 47 49 49 48 49 49 49 47 47 48 49 49 49 48 48 48 48
31 29 28 26 24 23 22 22 23 23 23 24 26 28 29 30 31 33 37 41 43 46 50 53 55 57 56 55 53 52 51 51 49 45 41 39 37 36 36 37 39 41 43 44 45 46 46 46 47 48 49 50 52 53 53 53 53 52 51 51 51 52 51 50 50 51 51 50 50 50 49 49 49 48 46 46 48 50 50 49 49 49 49 50 49
31 28 28 27 24 23 22 23 23 23 23 24 25 26 27 28 30 34 38 41 44 45 48 49 51 52 52 51 50 50 50 52 52 49 44 42 41 39 37 36 38 39 39 41 42 44 46 48 50 51 51 52 54 55 55 55 55 53 51 51 52 53 53 53 53 54 55 55 55 53 51 50 49 48 47 48 50 50 50 50 50 50 51 51 50
30 28 26 25 23 22 22 23 23 23 23 23 24 25 27 30 33 36 39 41 44 45 46 45 44 45 45 47 48 49 51 52 52 49 45 42 40 38 36 37 39 42 42 42 41 41 43 45 48 48 48 49 51 53 56 57 57 55 55 56 58 57 55 55 56 55 53 54 56 54 51 49 48 47 47 49 51 51 51 50 50 49 49 49 48
29 28 26 24 24 23 23 24 24 23 23 25 29 32 34 36 38 41 42 42 43 44 45 46 48 46 43 42 45 48 48 49 50 49 46 43 41 40 38 38 41 46 49 49 47 45 45 46 48 48 48 47 47 48 49 51 52 53 55 59 61 58 54 53 54 53 51 52 53 53 51 50 49 48 47 48 50 51 51 50 49 48 47 46 46
29 29 26 26 26 26 25 25 25 25 26 30 34 38 39 39 38 39 40 41 43 46 47 50 53 54 51 50 53 55 52 49 50 50 47 45 45 45 44 45 47 49 51 51 51 50 49 48 48 48 47 46 45 47 48 49 50 51 53 56 59 58 55 54 54 52 51 52 54 54 53 53 52 50 49 49 49 50 51 50 50 49 49 48 47
30 29 27 27 28 27 27 26 26 26 28 31 36 40 41 39 38 37 37 38 41 44 45 46 51 56 59 60 61 59 55 52 50 50 49 49 49 50 50 51 50 48 47 48 49 48 47 46 46 45 44 42 43 45 47 49 50 52 52 52 53 53 53 53 52 50 49 51 54 54 53 53 53 53 53 52 50 50 52 52 53 53 52 50 47